Theta_e
319 319 319 318 316 314 314 313 311 310 308 308 307 308 308 308 308 308 308 308 308 309 309 310 310 311 309 300 302 307 320 317 313 309 303 302 299 298 296 297 298 297 298 301 303 303 303
318 318 318 317 316 314 314 312 311 310 308 307 307 308 308 308 308 307 307 308 308 308 309 310 310 311 305 293 307 306 308 304 303 301 299 298 299 301 298 298 296 300 300 300 301 301 301
318 318 317 316 315 314 313 312 310 308 308 307 307 307 307 307 307 306 306 307 308 308 309 311 311 310 302 299 306 304 305 303 303 304 301 301 300 294 294 293 299 298 293 296 298 300 300
318 317 317 315 314 313 313 311 308 308 308 308 307 307 307 307 306 306 306 307 308 308 309 311 312 306 298 311 302 306 303 302 304 303 302 302 304 300 295 295 294 292 292 287 296 298 300
318 317 316 314 313 313 312 310 308 308 308 307 306 306 306 306 306 307 307 307 308 309 310 312 307 304 299 311 302 303 302 301 302 302 301 303 300 296 296 287 284 288 284 287 291 298 298
318 317 317 315 313 312 310 308 308 308 308 306 306 306 305 305 306 306 306 307 309 307 308 309 309 299 303 297 301 303 304 304 300 300 297 296 294 290 286 282 278 282 284 288 288 293 296
317 317 316 314 313 312 310 308 308 308 306 305 305 304 304 304 305 305 303 300 296 295 299 296 295 297 298 300 303 302 300 299 300 297 289 293 286 285 287 287 289 288 287 286 289 294 291
316 316 315 314 312 311 309 308 308 306 305 304 303 303 303 304 304 305 302 294 295 295 289 298 298 299 301 300 294 297 299 292 291 287 291 289 284 291 294 294 292 290 287 286 290 292 291
315 315 314 313 311 309 309 309 307 305 304 303 302 302 303 303 303 300 294 295 300 300 288 297 297 298 296 296 292 292 296 292 288 286 286 284 288 294 293 291 290 289 288 287 287 291 291
314 313 312 311 310 308 308 309 306 304 303 301 301 302 302 303 300 298 294 299 300 301 286 290 293 296 296 294 290 295 295 291 288 285 286 285 290 288 287 287 289 285 291 291 289 286 282
313 312 311 310 308 308 309 307 305 303 302 300 301 301 302 301 295 295 298 299 298 297 277 291 292 296 294 290 290 292 295 292 286 286 286 283 285 284 284 286 289 285 290 289 289 285 284
311 310 309 309 308 309 306 305 303 302 301 300 300 301 301 300 297 298 301 299 297 284 277 286 291 290 288 290 290 292 292 294 293 288 287 285 289 287 286 290 290 291 288 288 287 284 279
309 309 308 309 308 306 305 304 303 301 300 299 300 301 298 299 295 301 300 295 283 279 289 285 286 288 286 285 288 288 287 285 282 279 279 284 284 287 292 287 290 289 286 279 277 276 277
308 308 308 307 306 305 304 303 302 300 299 299 300 300 301 300 301 300 297 287 277 285 285 288 287 286 283 286 286 286 284 282 286 284 279 277 275 284 288 285 283 284 287 280 274 275 278
308 307 307 306 305 303 303 302 301 299 299 299 299 295 297 299 300 298 290 280 278 284 286 284 285 282 283 286 284 284 283 283 285 285 278 277 277 286 288 288 286 283 281 289 282 283 280
308 307 305 303 302 301 301 302 299 299 299 299 294 295 294 299 299 296 287 283 284 288 287 286 280 284 279 281 281 282 282 286 284 287 287 283 276 284 286 288 288 287 290 280 283 275 274
305 303 303 302 301 302 302 300 299 298 298 298 292 289 294 298 299 291 282 281 286 289 288 284 282 281 282 281 281 280 281 285 287 287 287 284 281 279 284 282 281 283 283 285 285 282 276
304 302 301 300 302 301 300 299 299 298 297 295 293 285 295 299 287 289 281 286 287 286 289 287 287 285 282 282 280 281 281 285 290 289 283 286 281 276 279 286 289 287 284 286 279 277 279
303 302 301 301 301 300 299 299 298 297 297 293 290 286 297 296 281 281 285 286 287 286 286 285 284 285 285 282 279 283 284 289 289 288 285 286 280 273 276 282 286 282 284 285 285 283 276
301 301 301 301 300 299 299 300 298 298 297 293 291 282 287 291 289 286 284 284 283 288 285 286 285 287 285 281 284 281 283 287 289 288 291 289 282 278 273 276 282 280 282 284 284 278 278
301 302 301 300 300 300 299 299 298 298 298 293 291 287 289 282 282 285 287 285 283 282 287 287 285 285 283 278 281 280 283 284 287 290 288 286 278 281 281 282 283 282 282 283 281 281 278
302 301 301 300 300 300 300 299 298 298 298 291 286 286 289 285 287 284 283 283 283 284 285 284 283 284 285 280 279 277 282 282 282 286 285 287 277 281 278 283 283 280 282 282 282 283 281
301 301 301 301 300 299 299 298 297 298 297 291 292 292 290 286 283 282 281 284 284 286 287 288 284 282 283 284 286 286 287 287 286 285 284 283 281 278 275 281 280 276 281 283 284 284 284
301 300 299 299 300 300 299 298 298 299 297 293 293 292 286 279 282 284 286 286 285 286 283 287 288 284 288 291 290 289 288 289 289 288 288 283 281 279 276 278 270 282 286 286 285 285 287
301 300 299 300 299 300 298 298 298 298 298 292 295 292 288 280 285 285 286 285 286 287 284 287 288 289 290 287 280 279 282 282 285 287 285 285 281 277 271 274 278 279 282 282 283 282 287
300 300 299 299 300 299 298 298 298 299 299 294 295 295 290 283 281 288 284 286 281 282 284 288 291 290 289 281 279 276 275 278 276 280 286 285 285 280 278 273 271 278 284 287 285 278 285
300 299 299 299 300 299 298 298 298 299 299 294 293 296 291 284 286 288 283 283 286 283 280 286 286 285 287 276 273 275 275 282 275 272 274 276 275 276 277 275 277 282 285 287 276 275 287
300 299 299 300 300 300 299 298 299 299 299 296 292 296 291 286 288 291 291 285 285 284 279 284 282 283 280 276 274 276 275 277 276 279 276 275 271 273 274 266 267 286 284 277 282 286 287
299 299 299 300 300 299 299 298 299 299 299 298 289 295 296 288 288 293 293 293 291 290 285 285 283 284 281 276 276 276 276 276 276 272 284 272 281 278 280 279 285 287 285 287 287 286 286
Wind_Speed
19 19 19 16 14 13 11 10 8 7 6 4 6 8 12 13 16 16 16 16 16 16 17 16 15 13 8 3 10 7 9 8 4 4 5 6 8 7 11 6 12 18 15 17 16 17 16
20 19 17 15 14 14 12 10 9 6 7 6 5 8 11 13 16 17 17 18 17 17 17 15 10 6 3 6 3 2 9 3 6 5 9 7 6 10 12 13 9 8 14 14 12 15 13
22 19 17 15 13 13 12 9 8 7 6 7 7 9 11 14 16 18 19 19 18 17 15 11 4 4 5 14 10 9 8 7 4 5 6 7 7 4 10 11 9 9 13 16 14 11 14
24 22 19 15 13 11 10 9 8 7 7 8 9 10 12 15 17 19 21 20 18 18 14 10 3 4 7 8 5 8 6 8 9 6 4 8 6 6 3 8 9 9 9 7 8 11 11
24 23 24 21 20 16 13 12 11 8 7 7 10 10 12 14 17 20 21 22 18 18 8 7 3 3 6 2 3 8 5 7 9 8 7 11 6 3 5 5 7 5 10 13 20 14 17
29 27 28 26 24 20 17 15 12 9 6 7 9 10 13 14 17 21 22 25 7 1 4 6 9 3 6 5 7 8 11 12 8 4 6 6 3 4 2 2 8 5 7 11 18 9 14
31 29 28 25 23 21 18 15 12 9 6 6 7 10 12 15 17 20 12 5 5 1 4 5 2 5 6 6 10 5 7 10 5 3 5 7 4 7 13 14 18 16 16 21 19 18 10
30 29 28 25 24 21 20 17 13 10 7 6 5 9 12 14 18 19 7 4 3 4 7 6 4 5 10 2 7 4 10 7 8 7 11 6 7 14 13 14 15 14 16 15 15 11 10
30 27 27 27 25 22 20 18 14 10 8 5 4 7 11 14 17 6 6 5 4 7 3 5 7 6 2 5 5 11 8 4 7 8 12 8 13 16 14 13 12 14 13 9 15 14 12
27 25 24 24 23 22 19 18 14 11 7 4 4 6 9 14 4 4 4 6 5 2 2 6 6 1 3 5 3 6 5 3 5 7 13 9 7 17 15 16 12 17 9 10 12 10 11
28 27 25 24 22 19 17 17 14 10 7 3 4 7 8 5 3 3 3 6 3 4 1 10 5 3 3 4 7 2 6 4 7 13 7 9 15 15 16 13 14 21 20 17 10 8 7
29 28 26 23 21 19 18 14 11 8 6 2 4 8 9 1 2 2 5 5 3 4 5 3 4 2 2 6 8 4 5 9 12 12 10 13 11 12 10 12 15 17 22 17 8 4 10
29 26 24 23 23 20 18 14 11 8 5 3 6 7 5 4 2 4 4 2 4 2 6 5 2 3 6 8 4 5 6 8 4 8 6 11 11 9 6 8 10 17 13 6 9 7 13
30 28 26 23 20 17 15 13 10 7 5 4 5 6 5 3 4 3 3 4 2 3 7 4 5 8 6 1 2 5 5 5 9 6 6 6 9 13 19 13 10 9 4 6 7 6 11
30 28 25 24 20 17 15 13 9 6 4 3 5 2 3 3 1 1 5 3 0 5 4 5 7 6 5 5 5 6 6 8 5 6 4 7 10 15 16 16 10 10 7 3 8 8 8
29 28 26 23 19 16 15 13 9 6 3 2 1 3 2 6 4 2 3 3 4 5 5 4 2 6 6 9 7 8 5 8 13 10 8 6 11 11 12 12 14 5 3 4 3 4 6
30 28 25 22 18 16 16 13 10 5 3 0 1 2 3 4 3 2 3 1 6 8 5 3 6 6 5 6 8 8 5 11 13 14 10 6 6 10 12 5 14 12 8 1 3 6 3
28 27 24 21 18 17 14 11 9 5 1 0 2 3 4 3 3 3 3 3 2 4 5 3 1 3 5 6 5 5 7 8 10 8 7 7 4 9 13 14 14 6 4 3 5 4 2
26 27 24 22 19 17 15 12 7 3 2 1 3 3 1 4 3 1 2 6 3 0 5 4 4 3 3 4 5 6 5 5 5 5 4 5 3 7 6 4 5 7 10 4 3 3 3
24 22 22 21 18 14 11 10 6 3 2 1 1 3 2 1 2 5 4 3 6 4 0 1 3 3 5 5 6 7 6 6 8 11 4 5 2 8 10 13 9 4 18 17 7 3 3
23 23 21 19 18 15 15 10 6 3 1 0 2 3 4 2 3 5 3 4 2 3 1 4 1 10 5 3 7 5 11 12 9 13 3 1 2 7 9 13 15 16 17 10 11 7 5
23 20 18 17 16 16 15 10 5 0 3 1 3 3 2 4 6 7 3 4 3 8 3 2 4 4 5 3 2 7 10 6 6 6 8 0 4 3 8 12 12 12 13 12 7 14 6
22 21 19 17 16 15 13 9 5 3 4 1 3 2 5 1 2 5 5 4 9 4 4 1 3 3 5 4 6 12 11 15 11 10 5 4 3 3 5 7 13 5 7 12 15 6 7
21 21 19 18 16 15 12 8 7 5 5 1 3 2 5 2 4 4 8 8 7 7 3 3 5 2 5 9 11 10 1 6 5 4 7 5 4 2 4 5 2 9 18 11 14 22 20
19 19 18 18 15 15 11 9 8 6 5 1 4 4 3 2 5 6 8 5 3 4 3 4 3 3 5 7 4 5 5 1 4 6 3 5 1 4 1 2 8 18 17 13 12 7 20
18 19 19 17 16 14 11 9 8 7 8 1 2 1 2 4 4 9 6 5 3 2 2 3 5 3 3 1 3 3 1 4 4 7 7 8 4 1 0 2 3 8 17 17 13 2 17
19 18 17 17 15 14 12 8 8 9 7 3 2 5 1 4 4 6 4 2 1 3 2 4 4 6 5 2 2 2 3 4 3 4 6 6 5 3 4 3 5 14 19 17 6 7 17
18 16 15 15 16 14 12 8 8 8 7 5 1 6 4 3 5 5 4 3 4 4 3 4 5 5 4 6 3 3 2 3 3 1 3 2 3 4 4 5 5 13 6 8 4 6 10
17 17 16 16 15 12 11 8 9 7 6 6 4 4 3 4 0 3 3 3 3 4 3 5 2 0 3 4 3 2 3 3 2 2 1 3 2 3 3 2 1 2 1 4 5 5 6
Wind_Direction
221 221 222 206 206 203 203 213 225 240 257 272 301 315 317 319 317 319 319 312 307 305 303 303 302 309 328 251 254 193 204 217 227 214 233 256 288 283 250 247 242 257 261 260 263 264 267
221 221 207 206 203 203 206 211 228 243 259 266 292 308 313 312 312 314 313 309 303 302 303 302 296 293 231 254 235 190 232 223 250 300 307 307 257 272 281 275 271 270 278 279 276 270 268
209 220 209 201 200 202 209 206 223 237 250 279 296 309 313 311 313 313 310 305 301 302 301 296 272 226 263 249 308 311 320 282 287 310 262 281 306 5 331 321 299 313 312 307 292 274 279
200 201 207 192 194 203 209 193 221 228 245 277 298 309 312 313 313 311 307 302 299 298 301 298 278 240 253 273 310 326 332 333 315 303 336 297 275 271 257 290 308 317 300 286 280 302 277
191 197 192 187 189 191 193 196 204 215 244 278 299 309 314 317 316 312 309 298 293 285 277 294 258 227 271 215 299 303 279 262 264 272 281 277 271 223 292 279 302 236 261 276 285 262 274
191 195 195 185 184 190 186 197 198 201 234 277 294 308 314 321 317 313 311 294 269 231 230 243 262 310 257 340 311 285 279 254 251 249 268 238 211 203 286 197 252 245 259 270 270 267 254
192 192 189 185 186 181 180 195 205 184 207 257 284 307 316 321 318 315 331 338 6 323 258 264 252 278 349 327 290 269 356 318 348 232 231 251 149 221 230 218 235 246 251 265 275 285 273
195 194 182 179 178 178 182 187 190 177 196 237 286 308 316 323 319 319 306 62 46 210 322 261 264 258 251 214 302 332 18 23 348 326 317 328 227 235 248 245 251 252 255 264 283 282 275
195 186 176 170 173 178 182 180 177 181 200 220 273 306 314 326 319 316 87 62 21 360 260 259 221 270 25 309 288 297 4 20 314 327 319 304 290 311 316 304 300 280 259 266 259 274 276
182 171 167 166 168 173 185 173 181 185 196 209 272 302 324 327 322 315 69 32 350 343 21 162 201 196 239 304 282 317 24 29 320 304 312 274 328 326 318 312 315 300 322 307 311 290 276
165 160 159 161 168 177 180 170 182 179 182 202 279 305 324 5 272 25 53 6 294 32 268 169 118 150 291 286 310 203 350 10 305 293 291 259 291 288 296 294 302 290 300 291 285 296 299
157 157 158 163 170 170 158 167 172 173 182 214 276 304 335 139 201 30 42 334 21 56 232 122 124 126 300 331 294 312 19 344 283 274 275 273 257 251 259 299 295 289 277 284 270 267 266
154 155 162 167 160 154 158 165 175 175 181 227 285 300 310 329 139 43 12 47 52 193 182 129 88 11 336 287 1 24 358 307 307 329 320 309 297 310 20 347 332 1 354 305 269 241 250
151 153 153 150 149 151 157 164 173 177 200 238 274 312 282 279 37 15 59 62 198 126 58 30 21 323 271 283 49 2 310 313 317 3 348 338 330 357 343 341 315 330 45 267 261 248 255
149 149 149 147 146 154 159 165 167 183 210 259 304 215 257 178 215 78 89 125 308 10 12 16 321 258 285 68 48 356 324 286 6 6 322 310 279 321 322 333 332 307 290 169 297 241 255
145 140 136 136 148 158 167 163 164 181 210 267 243 190 130 163 151 48 81 214 115 58 33 5 299 30 9 356 343 341 298 3 342 10 25 332 312 316 320 332 318 290 326 356 252 278 231
132 133 137 143 155 167 159 156 162 176 219 306 176 108 231 141 90 73 155 58 114 92 38 6 18 357 355 351 356 327 316 325 18 2 342 286 278 308 319 298 296 334 289 227 294 261 281
134 137 140 144 144 150 153 156 169 172 270 276 267 103 228 140 98 230 98 35 23 82 152 172 207 314 8 340 290 307 334 20 348 11 335 15 283 293 313 306 314 297 21 36 241 333 322
136 141 142 148 154 162 157 164 173 152 23 3 193 126 246 94 123 61 156 89 22 344 60 30 11 45 333 332 335 321 310 342 345 5 357 349 335 313 313 12 8 0 306 235 238 244 247
137 141 147 147 151 154 162 156 166 130 73 16 25 99 327 108 273 130 142 118 136 104 82 158 252 267 39 356 329 303 353 337 344 332 261 28 269 271 283 280 283 298 288 278 191 212 286
140 143 144 155 161 170 167 160 163 146 29 14 22 189 167 173 324 109 121 135 146 138 150 228 62 47 13 330 304 352 332 325 318 301 130 135 282 314 309 307 302 298 299 313 304 260 165
145 145 145 149 154 152 145 154 145 113 328 100 117 105 31 107 111 106 75 223 198 113 95 11 49 344 312 270 222 308 312 321 274 297 344 268 270 281 307 294 280 316 310 324 306 301 246
143 142 144 149 152 147 147 151 141 77 12 311 272 321 98 128 163 125 198 112 88 73 255 71 186 221 283 350 301 276 268 266 252 293 308 255 295 319 260 314 321 317 21 339 333 9 10
149 151 154 155 154 148 151 153 122 89 51 305 272 31 85 224 171 163 115 117 135 185 187 277 262 41 344 324 295 282 266 83 61 175 181 284 324 245 275 305 285 60 25 351 357 31 21
151 155 159 158 157 151 148 146 117 99 38 347 309 49 74 149 134 110 124 116 164 224 200 276 39 82 323 306 337 338 2 164 210 177 25 23 351 294 153 292 265 33 344 330 345 16 12
153 152 149 146 144 142 142 134 109 79 28 26 20 18 53 103 340 164 138 185 201 185 336 194 66 347 299 23 15 346 77 313 357 336 349 337 122 296 299 243 40 338 316 325 314 165 1
150 152 153 151 146 144 144 130 94 74 34 27 4 31 80 90 358 37 93 126 36 55 194 60 2 5 54 10 17 3 14 4 4 349 328 338 348 334 330 328 80 347 333 333 42 321 331
152 150 152 157 149 145 141 133 98 80 40 24 40 37 70 81 31 17 27 23 20 41 83 273 48 351 13 35 61 328 17 273 41 331 323 343 349 328 349 19 356 3 357 44 296 298 313
153 150 148 142 137 135 141 136 106 90 53 10 60 355 12 70 2 354 339 334 19 74 97 348 189 217 183 70 23 13 336 360 340 294 338 19 5 327 335 35 40 327 343 341 304 303 327